Weather Service Report


150 
ASUS45 KREV 161310
RWRNV 
NEVADA REGIONAL WEATHER ROUNDUP
NATIONAL WEATHER SERVICE RENO NV
600 AM PDT TUE SEP 16 2014

NOTE: "FAIR" INDICATES FEW OR NO CLOUDS BELOW 12,000 FEET WITH NO
SIGNIFICANT WEATHER AND/OR OBSTRUCTIONS TO VISIBILITY.

NVZ001-003-004-161400-
WESTERN NEVADA
  
CITY           SKY/WX    TMP DP  RH WIND       PRES   REMARKS
RENO           CLEAR     61  46  57 CALM      30.07R                  
MINDEN         FAIR      63  45  51 SW3       30.09S                  
SLIDE MTN        N/A     48  41  76 SW21        N/A                   
PYRAMID LAKE     N/A     68 N/A N/A W7          N/A                   
FALLON         CLEAR     56  37  49 CALM      30.02S                  
LOVELOCK       PTCLDY    54  37  52 CALM      30.02R                  
HAWTHORNE      CLEAR     66  41  39 CALM      30.05R                  
$$

NVZ002-CAZ072-073-161400-
NORTHERN AND CENTRAL SIERRA
  
CITY           SKY/WX    TMP DP  RH WIND       PRES   REMARKS
S. LAKE TAHOE  CLEAR     58  41  53 CALM      30.18R                  
TRUCKEE        CLEAR     59  43  55 S5        30.16S                  
SQUAW VLY 8000 NOT AVBL                                               
SUSANVILLE     CLEAR     52  36  54 W7        30.05S                  
BLUE CANYON    CLEAR     64  38  38 SE6       30.13S HAZE             
MAMMOTH LAKES  FAIR      48  37  66 CALM      30.27S                  
BRIDGEPORT     FAIR      48  37  65 CALM      30.21S                  
$$

NVZ030-031-036-161400-
NORTHERN NEVADA
  
CITY           SKY/WX    TMP DP  RH WIND       PRES   REMARKS
ELKO           PTCLDY    46  29  51 CALM      30.13R                  
WINNEMUCCA     PTCLDY    52  37  56 E7        30.06R                  
WENDOVER       CLEAR     63  36  36 CALM      30.08S                  
$$

NVZ035-037-161400-
CENTRAL NEVADA
  
CITY           SKY/WX    TMP DP  RH WIND       PRES   REMARKS
ELY            CLEAR     47  37  68 S10       30.23S                  
EUREKA           N/A     54  32  43 S8        30.17R                  
$$

NVZ013-014-161400-
SOUTH CENTRAL NEVADA
  
CITY           SKY/WX    TMP DP  RH WIND       PRES   REMARKS
TONOPAH        CLEAR     58  36  43 N12       30.15S                  
$$

NVZ017-020-022-161400-
SOUTHERN NEVADA
  
CITY           SKY/WX    TMP DP  RH WIND       PRES   REMARKS
LAS VEGAS      PTCLDY    81  51  35 SW6       29.88R                  
N. LAS VEGAS   CLEAR     79  47  32 NW6       29.91R                  
NELLIS AFB     CLEAR     81  44  27 NE8       29.89R                  
HENDERSON      CLEAR     79  46  31 S8        29.94R                  
MERCURY        CLEAR     71  43  36 N6        29.98S                  
$$

Return to Home page


Western Regional Climate Center, wrcc@dri.edu